CW7977 Corfu GR current weather conditions

sailwx.info

Wind from 225

Air temperature 16.7° C
Dewpoint 14.1° C

Last reported at 2014-Sep-30 22:47 UTC.
Time now 2014-Sep-30 23:56 UTC

Location: N 39°37' E 019°54'.
View on Google Maps.

See reports from other nearby stations

  
Tides and Currents Weather Stations Pressure Air Temp Water Temp Dewpoint Dewpoint Depression Visibility Wind Speed Wind Dir Waves Ship Positions
date/time (UTC)wind fromknots sea level pressurealtimeterstation pressurevisibilityair tempwater tempwave heightnotes
2014-Sep-30 22:47 225 16.7
2014-Sep-30 22:27 225 17.2
2014-Sep-30 22:17 248 0 gusting 4 17.2
2014-Sep-30 22:07 248 17.2
2014-Sep-30 21:57 248 0 gusting 2 17.2
2014-Sep-30 21:47 242 0 gusting 2 17.2
2014-Sep-30 21:37 246 0 gusting 2 17.2
2014-Sep-30 21:27 227 0 gusting 1 17.2
2014-Sep-30 21:17 248 0 gusting 4 17.2
2014-Sep-30 21:07 239 17.8
2014-Sep-30 20:57 242 0 gusting 1 17.8
2014-Sep-30 20:47 244 1 gusting 4 17.8
2014-Sep-30 20:37 225 17.8
2014-Sep-30 20:27 234 0 gusting 1 17.8
2014-Sep-30 20:17 247 0 gusting 1 18.3
2014-Sep-30 20:07 248 0 gusting 1 18.3
2014-Sep-30 19:57 225 18.3
2014-Sep-30 19:47 248 0 gusting 1 18.3
2014-Sep-30 19:27 248 18.9
2014-Sep-30 19:17 270 18.9
2014-Sep-30 19:07 245 18.9
2014-Sep-30 18:57 229 18.9
2014-Sep-30 18:47 257 0 gusting 1 19.4
2014-Sep-30 18:37 248 0 gusting 2 19.4
2014-Sep-30 18:27 225 19.4
2014-Sep-30 18:17 228 19.4
2014-Sep-30 18:07 225 19.4
2014-Sep-30 17:57 244 0 gusting 2 19.4
2014-Sep-30 17:47 228 0 gusting 1 20.0
2014-Sep-30 17:37 297 1 gusting 4 20.0
2014-Sep-30 17:27 295 0 gusting 4 20.0
2014-Sep-30 17:17 324 0 gusting 5 20.6
2014-Sep-30 17:07 297 1 gusting 4 20.6
2014-Sep-30 16:57 309 1 gusting 4 20.6
2014-Sep-30 16:47 314 1 gusting 2 21.1
2014-Sep-30 16:37 313 1 gusting 5 21.7
2014-Sep-30 16:27 308 1 gusting 5 22.2
2014-Sep-30 16:17 292 0 gusting 6 22.8
2014-Sep-30 15:57 027 0 gusting 2 23.3
2014-Sep-30 15:47 041 0 gusting 5 23.9
2014-Sep-30 15:37 111 1 gusting 6 23.9
2014-Sep-30 15:27 033 0 gusting 5 24.4
2014-Sep-30 15:17 014 1 gusting 6 24.4
2014-Sep-30 15:07 017 3 gusting 6 24.4
2014-Sep-30 14:57 019 1 gusting 6 25.0
2014-Sep-30 14:47 100 0 gusting 4 25.0
2014-Sep-30 14:37 036 2 gusting 5 25.0
2014-Sep-30 14:27 040 2 gusting 5 25.0
2014-Sep-30 14:17 136 1 gusting 4 25.0
2014-Sep-30 14:07 188 0 gusting 5 25.0
2014-Sep-30 13:57 139 4 gusting 6 25.6
2014-Sep-30 13:47 249 0 gusting 5 25.0
2014-Sep-30 13:37 046 3 gusting 6 25.0
2014-Sep-30 13:27 038 1 gusting 6 25.0
2014-Sep-30 13:17 173 0 gusting 6 25.0
2014-Sep-30 13:07 114 1 gusting 6 25.0
2014-Sep-30 12:57 073 1 gusting 5 24.4
2014-Sep-30 12:47 050 1 gusting 6 24.4
2014-Sep-30 12:37 141 4 gusting 6 25.0
2014-Sep-30 12:27 075 4 gusting 6 25.0
2014-Sep-30 12:17 135 1 gusting 4 25.6
2014-Sep-30 12:07 025 1 gusting 11 25.0
2014-Sep-30 11:57 203 2 gusting 6 25.0
2014-Sep-30 11:47 251 1 gusting 6 24.4
2014-Sep-30 11:37 223 2 gusting 6 23.9
2014-Sep-30 11:27 053 1 gusting 6 23.3
2014-Sep-30 11:17 131 2 gusting 6 23.3
2014-Sep-30 11:07 145 2 gusting 5 22.8
2014-Sep-30 10:57 147 4 gusting 6 22.8
2014-Sep-30 10:47 126 2 gusting 6 22.8
2014-Sep-30 10:37 134 5 gusting 6 22.8
2014-Sep-30 10:27 124 2 gusting 6 22.8
2014-Sep-30 10:17 144 3 gusting 7 22.8
2014-Sep-30 10:07 113 1 gusting 6 22.8
2014-Sep-30 09:57 151 2 gusting 6 22.8
2014-Sep-30 09:47 135 4 gusting 6 22.2
2014-Sep-30 09:37 139 3 gusting 6 22.2
2014-Sep-30 09:27 135 4 gusting 6 22.2
2014-Sep-30 09:17 125 2 gusting 6 22.2
2014-Sep-30 09:07 125 2 gusting 5 22.2
2014-Sep-30 08:57 150 4 gusting 6 22.2
2014-Sep-30 08:47 133 2 gusting 5 21.7
2014-Sep-30 08:37 127 1 gusting 6 21.7
2014-Sep-30 08:27 088 2 gusting 5 21.7
2014-Sep-30 08:17 124 2 gusting 5 21.1
2014-Sep-30 08:07 141 0 gusting 2 21.1
2014-Sep-30 07:57 077 20.6
2014-Sep-30 07:37 034 0 gusting 4 20.0
2014-Sep-30 07:27 054 0 gusting 2 20.0
2014-Sep-30 07:17 029 0 gusting 2 19.4
2014-Sep-30 07:07 293 18.9
2014-Sep-30 06:47 172 18.3
2014-Sep-30 06:37 180 17.8
2014-Sep-30 06:27 225 17.2
2014-Sep-30 06:17 183 16.7
2014-Sep-30 06:07 225 0 gusting 4 16.1
2014-Sep-30 05:57 245 15.6
2014-Sep-30 05:47 248 0 gusting 1 15.6
2014-Sep-30 04:47 225 14.4
2014-Sep-30 04:37 248 14.4
2014-Sep-30 04:27 244 15.0
2014-Sep-30 04:17 248 0 gusting 2 15.0
2014-Sep-30 04:07 235 0 gusting 2 15.0
2014-Sep-30 03:57 248 15.0
2014-Sep-30 03:47 234 0 gusting 1 15.0
2014-Sep-30 03:37 243 0 gusting 1 15.0
2014-Sep-30 03:27 248 15.0
2014-Sep-30 03:17 248 15.0
2014-Sep-30 03:07 248 15.0
2014-Sep-30 02:57 248 15.6
2014-Sep-30 02:47 245 0 gusting 0 15.6
2014-Sep-30 02:37 270 15.6
2014-Sep-30 02:27 248 15.6
2014-Sep-30 02:17 248 0 gusting 0 15.6
2014-Sep-30 02:07 248 15.6
2014-Sep-30 01:57 248 15.6
2014-Sep-30 01:47 242 0 gusting 1 15.6
2014-Sep-30 01:37 240 0 gusting 1 15.6
2014-Sep-30 01:27 248 15.6
2014-Sep-30 01:17 248 15.6
2014-Sep-30 01:07 248 16.1
2014-Sep-30 00:57 270 16.1
2014-Sep-30 00:47 248 0 gusting 0 16.1
2014-Sep-30 00:37 270 16.1
2014-Sep-30 00:27 241 0 gusting 2 16.1
2014-Sep-30 00:17 248 16.1
2014-Sep-30 00:07 248 16.1
2014-Sep-29 23:57 248 16.7
2014-Sep-29 23:47 248 16.7
2014-Sep-29 23:37 270 16.7
2014-Sep-29 23:07 225 16.7
2014-Sep-29 22:57 231 0 gusting 1 16.7
2014-Sep-29 22:47 248 16.7
2014-Sep-29 22:37 244 0 gusting 2 17.2
2014-Sep-29 22:27 248 17.2
2014-Sep-29 22:17 248 17.2
2014-Sep-29 22:07 234 0 gusting 1 17.2
2014-Sep-29 21:57 225 17.2
2014-Sep-29 21:47 248 17.8
2014-Sep-29 21:37 248 0 gusting 2 17.2
2014-Sep-29 21:27 231 0 gusting 1 17.8
2014-Sep-29 21:17 239 0 gusting 2 17.8
2014-Sep-29 21:07 225 17.8
2014-Sep-29 20:57 195 0 gusting 1 17.8
2014-Sep-29 20:47 225 1 gusting 2 17.8
2014-Sep-29 20:37 233 2 gusting 4 17.8
2014-Sep-29 20:27 243 1 gusting 2 18.3
2014-Sep-29 20:17 225 18.3
2014-Sep-29 19:57 225 18.3
2014-Sep-29 19:47 225 18.3
2014-Sep-29 19:37 236 0 gusting 2 18.9
2014-Sep-29 19:27 236 1 gusting 2 18.9
2014-Sep-29 19:17 202 18.9
2014-Sep-29 19:07 181 19.4
2014-Sep-29 18:57 271 19.4
2014-Sep-29 18:47 296 0 gusting 2 19.4
2014-Sep-29 18:07 303 1 gusting 6 19.4
2014-Sep-29 17:37 304 1 gusting 5 20.0
2014-Sep-29 17:27 289 1 gusting 4 20.0
2014-Sep-29 17:17 311 1 gusting 2 20.0
2014-Sep-29 16:37 288 1 gusting 6 21.1
2014-Sep-29 16:27 301 2 gusting 6 21.7
2014-Sep-29 16:17 274 1 gusting 6 21.7
2014-Sep-29 15:57 273 3 gusting 6 22.8
2014-Sep-29 15:47 307 2 gusting 6 22.8
2014-Sep-29 15:37 297 4 gusting 7 23.3
2014-Sep-29 15:17 324 4 gusting 10 23.9
2014-Sep-29 15:07 287 3 gusting 10 24.4
2014-Sep-29 14:57 314 1 gusting 10 24.4
2014-Sep-29 14:47 289 5 gusting 12 24.4
2014-Sep-29 14:37 289 6 gusting 10 24.4
2014-Sep-29 14:27 297 6 gusting 13 25.0
2014-Sep-29 14:17 253 5 gusting 8 25.0
2014-Sep-29 14:07 292 4 gusting 10 25.0
2014-Sep-29 13:57 268 4 gusting 8 25.0
2014-Sep-29 13:47 288 3 gusting 10 25.6
2014-Sep-29 13:37 269 3 gusting 10 25.6
2014-Sep-29 13:27 262 4 gusting 10 25.6
2014-Sep-29 13:17 254 2 gusting 8 25.6
2014-Sep-29 13:07 272 4 gusting 10 25.6
2014-Sep-29 12:57 269 4 gusting 10 25.6
2014-Sep-29 12:47 208 4 gusting 11 25.6
2014-Sep-29 12:27 346 2 gusting 5 26.1
2014-Sep-29 12:17 335 0 gusting 2 25.6
2014-Sep-29 12:07 340 2 gusting 5 25.6
2014-Sep-29 11:57 352 1 gusting 5 25.6
2014-Sep-29 11:47 307 0 gusting 6 25.6
2014-Sep-29 11:37 027 3 gusting 6 25.0
2014-Sep-29 11:27 25.0
2014-Sep-29 11:17 031 0 gusting 4 24.4
2014-Sep-29 11:07 130 2 gusting 6 24.4
2014-Sep-29 10:57 139 2 gusting 5 24.4
2014-Sep-29 10:47 146 0 gusting 5 23.9
2014-Sep-29 10:37 143 2 gusting 5 23.9
2014-Sep-29 10:27 135 2 gusting 6 23.3
2014-Sep-29 10:17 154 2 gusting 5 23.3
2014-Sep-29 10:07 134 2 gusting 7 22.8
2014-Sep-29 09:57 136 6 gusting 7 22.8
2014-Sep-29 09:47 136 1 gusting 6 22.8
2014-Sep-29 09:27 150 2 gusting 6 22.8
2014-Sep-29 09:17 157 2 gusting 6 22.2
2014-Sep-29 09:07 127 4 gusting 6 22.2
2014-Sep-29 08:57 135 4 gusting 6 22.2
2014-Sep-29 08:37 140 4 gusting 6 21.7
2014-Sep-29 08:27 144 4 gusting 6 21.7
2014-Sep-29 08:17 142 2 gusting 6 21.7
2014-Sep-29 08:07 128 2 gusting 5 21.1
2014-Sep-29 07:57 148 2 gusting 6 20.6
2014-Sep-29 07:47 146 1 gusting 4 20.6
2014-Sep-29 07:27 135 1 gusting 2 19.4
2014-Sep-29 07:17 225 0 gusting 2 18.9
2014-Sep-29 07:07 202 0 gusting 1 18.3
2014-Sep-29 06:47 211 17.2
2014-Sep-29 06:37 248 17.2
2014-Sep-29 06:27 203 0 gusting 1 16.7
2014-Sep-29 06:17 225 16.1
2014-Sep-29 06:07 225 15.6
2014-Sep-29 05:57 247 0 gusting 2 15.0
2014-Sep-29 05:47 225 14.4
2014-Sep-29 04:47 248 13.9
2014-Sep-29 04:37 248 13.9
2014-Sep-29 04:27 228 13.9
2014-Sep-29 04:17 241 0 gusting 2 13.9
2014-Sep-29 04:07 257 1 gusting 2 13.9
2014-Sep-29 03:37 248 14.4
2014-Sep-29 03:27 248 14.4
2014-Sep-29 03:17 248 14.4
2014-Sep-29 02:57 248 14.4
2014-Sep-29 02:37 248 14.4
2014-Sep-29 02:07 245 0 gusting 0 14.4
2014-Sep-29 01:57 248 14.4
2014-Sep-29 01:17 248 14.4
2014-Sep-29 00:57 225 15.0
2014-Sep-29 00:47 244 0 gusting 2 15.0
2014-Sep-29 00:27 248 15.0
2014-Sep-29 00:17 237 0 gusting 2 15.0
2014-Sep-29 00:07 249 15.0
2014-Sep-28 23:57 248 15.0
2014-Sep-28 23:47 248 15.6
2014-Sep-28 23:37 248 0 gusting 2 15.6
2014-Sep-28 23:07 248 15.6